This demonstration page uses our WeatherBlox Daily Observations layout. Learn more.

Left ArrowRight Arrow

Hourly Observations for May 30, 2021

Temp ( °F °C ) Dew Point ( °F °C ) Humidity (%) Winds ( mph kmh ) Pressure ( in mb ) Visibility ( mi km ) Precip ( " mm )
12:53 am 00:53 Clear 74 23.3 56 13.3 54 54 Calm 29.85 1011 10 16 0.00 0.00
1:53 am 01:53 Clear 69 20.6 56 13.3 63 63 NNE 3 6 29.85 1011 10 16 0.00 0.00
2:53 am 02:53 Clear 66 18.9 53 11.7 63 63 Calm 29.86 1011 10 16 0.00 0.00
3:53 am 03:53 Clear 67 19.4 54 12.2 63 63 NNW 5 7 29.85 1011 10 16 0.00 0.00
4:53 am 04:53 Clear 63 17.2 53 11.7 70 70 ENE 5 7 29.85 1011 10 16 0.00 0.00
5:53 am 05:53 Sunny 63 17.2 52 11.1 68 68 Calm 29.85 1011 10 16 0.00 0.00
6:53 am 06:53 Sunny 71 21.7 50 10 47 47 NNW 5 7 29.85 1011 10 16 0.00 0.00
7:53 am 07:53 Sunny 77 25 47 8.3 35 35 N 6 9 29.85 1011 10 16 0.00 0.00
8:53 am 08:53 Sunny 83 28.3 45 7.2 26 26 NW 8 13 29.85 1011 10 16 0.00 0.00
9:53 am 09:53 Sunny 88 31.1 39 3.9 18 18 NNW 13 20 29.84 1010 10 16 0.00 0.00
10:53 am 10:53 Sunny 92 33.3 39 3.9 16 16 N 10 17 29.83 1010 10 16 0.00 0.00
11:53 am 11:53 Sunny 95 35 38 3.3 14 14 NNE 13 20 29.81 1010 10 16 0.00 0.00
12:53 pm 12:53 Sunny 98 36.7 37 2.8 12 12 VRB 7 11 29.79 1009 10 16 0.00 0.00
1:53 pm 13:53 Sunny 100 37.8 34 1.1 10 10 VRB 5 7 29.77 1008 10 16 0.00 0.00
2:53 pm 14:53 Sunny 102 38.9 28 -2.2 7 7 undefined N/A 29.76 1008 10 16 0.00 0.00
3:53 pm 15:53 Sunny 103 39.4 27 -2.8 7 7 VRB 6 9 29.74 1007 10 16 0.00 0.00
4:53 pm 16:53 Sunny 104 40 28 -2.2 7 7 NNE 8 13 29.73 1007 10 16 0.00 0.00
5:53 pm 17:53 Sunny 104 40 34 1.1 9 9 N 7 11 29.72 1007 10 16 0.00 0.00
6:53 pm 18:53 Sunny 102 38.9 34 1.1 9 9 NE 3 6 29.72 1006 10 16 0.00 0.00
7:53 pm 19:53 Sunny 99 37.2 40 4.4 13 13 Calm 29.72 1007 10 16 0.00 0.00
8:53 pm 20:53 Clear 94 34.4 41 5 16 16 NW 5 7 29.74 1007 10 16 0.00 0.00
9:53 pm 21:53 Clear 88 31.1 42 5.6 20 20 NNE 9 15 29.78 1008 10 16 0.00 0.00
10:53 pm 22:53 Clear 85 29.4 41 5 21 21 N 5 7 29.79 1009 10 16 0.00 0.00
11:53 pm 23:53 Clear 87 30.6 38 3.3 18 18 NNW 7 11 29.80 1009 10 16 0.00 0.00

Powered by AerisWeather